Terminal Aerodrome Forecast
Issued by NWS

Home | Current Version | Previous Version | Text Only | Print | Product List | Glossary On
Versions: 1 2 3 4 5 6 7 8 9 10 11 12 13
099
FTUS42 KTBW 261120
TAFPGD
TAF
KPGD 261120Z 2612/2712 05006KT P6SM SKC
     FM261400 08010KT P6SM FEW040
     FM261900 07010G15KT P6SM SCT060
     FM270100 09009KT P6SM FEW250=

USA.gov is the U.S. government's official web portal to all federal, state and local government web resources and services.